Weather in Bubnovo

Russia / Belgorod Oblast     50°50′36″N   37°31′13″E
temp.,
°C
wind,
m/s
gust,
m/s
humid.,
%
clouds,
%
prec.,
mm/h
press.,
hPa
HPBL,
m
6 may, thu
thu600:00+11s51165100 0.0 1014294
03:00+11s41167100 0.0 1014301
06:00+9s41078100 0.0 1014233
09:00+12s71260100 0.0 1013747
12:00+16s81152100 0.0 10121528
15:00+17ssw7104859 0.0 10112116
18:00+16ssw585879 0.0 1010630
21:00+12w3774100 0.1 1011193
7 may, fri
fri700:00+9nnw4890100 0.4 1012416
03:00+8nnw3693100 4.8 1013431
06:00+7wnw2392100 0.1 1015118
09:00+11nw34730 0.1 1016750
12:00+14nw23455 0.0 10161823
15:00+15sw22415 0.0 10161885
18:00+15s23556 0.0 1015921
21:00+11se4666100 0.0 101590
8 may, sat
sat800:00+10se4116780 0.0 1014252
03:00+11sse61664100 0.0 1012462
06:00+11s61378100 0.1 1011476
09:00+11s61482100 0.1 1009669
12:00+11s81593100 1.7 1009765
15:00+11ssw71396100 6.7 1009842
18:00+9wnw4995100 1.8 1010429
21:00+8nw61184100 1.9 1013658
9 may, sun
sun900:00+6wnw31087100 0.0 1014555
03:00+6nw4988100 0.1 1015507
06:00+4nw51185100 0.0 1017506
09:00+8nnw7106859 0.0 1018956
12:00+11nnw795314 0.0 10181776
15:00+12nnw8949100 0.0 10192333
18:00+10nnw7106247 0.1 10211543
21:00+6n411765 0.2 1024310
10 may, mon
mon1000:00+4nnw49865 0.0 1025202
03:00+4nnw614865 0.0 1025349
06:00+4n6158313 0.0 1027595
09:00+9nne9156444 0.0 10261119
12:00+13nne10135316 0.0 10251499
15:00+11nne81360100 0.0 10251066
18:00+12nne81466100 0.0 1024978
21:00+11nne8166995 0.0 1025762